This is the latest recevied weather packets stored in our database for station/object JR4VEV-13. If no packets are shown the sender has not sent any weather packets the latest 10 day(s).
| Time | Temp. | Humidity | Pressure | Rain* | Wind** | Luminosity | Snow |
|---|---|---|---|---|---|---|---|
| 1777513979 | 12.78° C | 93% | 1018.6 hPa | 0.51 mm | - | - | - |
| 1777513379 | 12.78° C | 93% | 1018.5 hPa | 0.51 mm | - | - | - |
| 1777512778 | 12.78° C | 93% | 1018.7 hPa | 0.51 mm | - | - | - |
| 1777512179 | 12.78° C | 93% | 1019 hPa | 0.51 mm | - | - | - |
| 1777511578 | 12.78° C | 93% | 1019.2 hPa | 0.76 mm | - | - | - |
| 1777510978 | 12.78° C | 92% | 1019.2 hPa | 0.76 mm | - | - | - |
| 1777510379 | 12.22° C | 93% | 1019.1 hPa | 0.76 mm | - | - | - |
| 1777509778 | 12.22° C | 93% | 1019.4 hPa | 1.02 mm | - | - | - |
| 1777509178 | 12.22° C | 93% | 1019.5 hPa | 1.02 mm | - | - | - |
| 1777508578 | 12.22° C | 93% | 1019.4 hPa | 1.27 mm | - | - | - |
| 1777507979 | 12.22° C | 94% | 1019.4 hPa | 1.27 mm | - | - | - |
| 1777507379 | 12.22° C | 95% | 1019.4 hPa | 1.78 mm | - | - | - |
| 1777506779 | 12.22° C | 95% | 1019.3 hPa | 1.78 mm | - | - | - |
| 1777506178 | 12.22° C | 96% | 1019.4 hPa | 1.78 mm | - | - | - |
| 1777505579 | 12.22° C | 96% | 1019.6 hPa | 1.78 mm | - | - | - |
| 1777504978 | 12.22° C | 97% | 1019.5 hPa | 1.52 mm | - | - | - |
| 1777504379 | 12.22° C | 97% | 1019.5 hPa | 1.52 mm | - | - | - |
| 1777503777 | 12.22° C | 97% | 1019.5 hPa | 1.27 mm | - | - | - |
| 1777503178 | 12.22° C | 97% | 1019.6 hPa | 1.27 mm | - | - | - |
| 1777502579 | 12.22° C | 97% | 1019.5 hPa | 1.27 mm | - | - | - |
| 1777501979 | 11.67° C | 97% | 1019.3 hPa | 1.27 mm | - | - | - |
| 1777501378 | 11.67° C | 97% | 1019.3 hPa | 1.27 mm | - | - | - |
| 1777500779 | 11.67° C | 97% | 1019.3 hPa | 1.27 mm | - | - | - |
| 1777500178 | 11.67° C | 97% | 1019.3 hPa | 1.27 mm | - | - | - |
| 1777499578 | 11.67° C | 96% | 1019.1 hPa | 1.02 mm | - | - | - |
* Rain latest hour (hover to see other rain measurements)
** Current wind speed in m/s (hover to see current wind gust speed)